Gilze-Rijen, Netherlands

2:22 AM CEST on July 28, 2017 (GMT +0200)
Gilze-Rijen Air Base

Weather History for EHGR - December, 2012

Change the Weather History Date:

Sunday, December 30, 2012

  Actual Average Record
Temperature  
Mean Temperature 45 °F -  
Max Temperature 48 °F 41 °F 55 °F (2002)
Min Temperature 42 °F 31 °F 15 °F (2008)
Degree Days  
Heating Degree Days 20    
Moisture  
Dew Point 41 °F    
Average Humidity 82    
Maximum Humidity 93    
Minimum Humidity 71    
Precipitation  
Precipitation 0.00 in - - ()
Sea Level Pressure  
Sea Level Pressure 29.87 in    
Wind  
Wind Speed 13 mph ()    
Max Wind Speed 20 mph    
Max Gust Speed 33 mph    
Visibility 6.2 miles    
Events Rain    
Averages and records for this station are not official NWS values.
T = Trace of Precipitation, MM = Missing Value Source: Averaged Metar Reports

Daily Weather History Graph

Daily Weather History Graph

Search for Another Location

Airport or City:

Trip Planner

Search our weather history database for the weather conditions in past years. The results will help you decide how hot, cold, wet, or windy it might be!

Date:

Astronomy

Dec. 30, 2012 Rise Set
Actual Time 8:46 AM CET 4:39 PM CET
Civil Twilight 8:06 AM CET 5:19 PM CET
Nautical Twilight 7:23 AM CET 6:03 PM CET
Astronomical Twilight 6:42 AM CET 6:43 PM CET
Moon 7:13 PM CET (12/30) 9:30 AM CET (12/30)
Length of Visible Light 9h 13m
Length of Day
7h 53m
Waning Gibbous, 96% of the Moon is Illuminated
Dec 30
Waning Gibbous
Jan 5
Last Quarter
Jan 11
New
Jan 19
First Quarter
Jan 27
Full

Hourly Weather History & Observations

Time (CET) Temp. Windchill Dew Point Humidity Pressure Visibility Wind Dir Wind Speed Gust Speed Precip Events Conditions
12:19 AM 48.2 °F - 44.6 °F 87% 29.74 in 6.2 mi SW 10.4 mph - N/A   Overcast
12:25 AM 48.2 °F - 44.6 °F 87% 29.74 in 6.2 mi SW 10.4 mph - N/A   Mostly Cloudy
12:55 AM 48.2 °F - 44.6 °F 87% 29.74 in 6.2 mi SW 11.5 mph - N/A   Overcast
1:25 AM 48.2 °F - 44.6 °F 87% 29.74 in 6.2 mi SW 11.5 mph - N/A   Scattered Clouds
1:33 AM 48.2 °F - 44.6 °F 87% 29.77 in 6.2 mi SW 12.7 mph - N/A   Overcast
1:48 AM 48.2 °F - 44.6 °F 87% 29.77 in 6.2 mi SW 12.7 mph - N/A   Mostly Cloudy
1:55 AM 48.2 °F - 42.8 °F 82% 29.77 in 6.2 mi SW 12.7 mph - N/A   Partly Cloudy
2:25 AM 48.2 °F - 42.8 °F 82% 29.77 in 6.2 mi SW 13.8 mph 26.5 mph N/A   Mostly Cloudy
2:55 AM 48.2 °F - 41.0 °F 76% 29.77 in 6.2 mi SW 13.8 mph - N/A   Mostly Cloudy
2:59 AM 48.2 °F - 41.0 °F 76% 29.77 in 6.2 mi SW 13.8 mph - N/A   Mostly Cloudy
3:03 AM 48.2 °F - 41.0 °F 76% 29.77 in 6.2 mi SW 15.0 mph - N/A   Overcast
3:04 AM 48.2 °F - 41.0 °F 76% 29.77 in 6.2 mi SW 15.0 mph - N/A   Overcast
3:12 AM 48.2 °F - 41.0 °F 76% 29.77 in 6.2 mi SW 16.1 mph - N/A   Overcast
3:25 AM 48.2 °F - 41.0 °F 76% 29.77 in 6.2 mi SW 16.1 mph - N/A   Overcast
3:30 AM 48.2 °F - 41.0 °F 76% 29.77 in 6.2 mi SW 17.3 mph 28.8 mph N/A   Mostly Cloudy
3:45 AM 46.4 °F 40.1 °F 41.0 °F 81% 29.77 in 6.2 mi SSW 15.0 mph - N/A   Mostly Cloudy
3:55 AM 46.4 °F 39.8 °F 41.0 °F 81% 29.77 in 6.2 mi SSW 16.1 mph 28.8 mph N/A   Mostly Cloudy
4:25 AM 46.4 °F 40.1 °F 41.0 °F 81% 29.77 in 6.2 mi SSW 15.0 mph - N/A   Overcast
4:39 AM 46.4 °F 39.5 °F 41.0 °F 81% 29.77 in 6.2 mi SSW 17.3 mph 31.1 mph N/A Rain Light Rain
4:55 AM 42.8 °F 36.2 °F 41.0 °F 93% 29.77 in 6.2 mi WSW 12.7 mph - N/A Rain Light Rain
4:59 AM 42.8 °F 37.0 °F 41.0 °F 93% 29.77 in 6.2 mi WSW 10.4 mph - N/A   Mostly Cloudy
5:04 AM 42.8 °F 37.5 °F 41.0 °F 93% 29.77 in 6.2 mi WSW 9.2 mph - N/A   Mostly Cloudy
5:11 AM 42.8 °F 37.5 °F 41.0 °F 93% 29.77 in 6.2 mi WSW 9.2 mph - N/A   Mostly Cloudy
5:20 AM 44.6 °F 39.2 °F 41.0 °F 87% 29.77 in 6.2 mi WSW 10.4 mph - N/A   Light Drizzle
5:25 AM 44.6 °F 38.4 °F 41.0 °F 87% 29.77 in 6.2 mi SW 12.7 mph 26.5 mph N/A   Light Drizzle
5:30 AM 44.6 °F 37.8 °F 41.0 °F 87% 29.77 in 6.2 mi SW 15.0 mph 26.5 mph N/A   Light Drizzle
5:55 AM 42.8 °F 35.8 °F 39.2 °F 87% 29.77 in 6.2 mi SW 13.8 mph - N/A   Mostly Cloudy
6:25 AM 42.8 °F 35.8 °F 39.2 °F 87% 29.80 in 6.2 mi SW 13.8 mph - N/A   Mostly Cloudy
6:55 AM 42.8 °F 35.1 °F 37.4 °F 81% 29.80 in 6.2 mi SW 16.1 mph - N/A   Overcast
7:25 AM 42.8 °F 35.8 °F 37.4 °F 81% 29.80 in 6.2 mi SW 13.8 mph - N/A   Unknown
7:55 AM 42.8 °F 35.8 °F 37.4 °F 81% 29.80 in 6.2 mi SW 13.8 mph - N/A   Unknown
8:25 AM 42.8 °F 36.2 °F 37.4 °F 81% 29.83 in 6.2 mi SW 12.7 mph - N/A   Unknown
8:51 AM 42.8 °F 35.4 °F 37.4 °F 81% 29.83 in 6.2 mi SW 15.0 mph - N/A Rain Rain
8:55 AM 42.8 °F 35.1 °F 37.4 °F 81% 29.83 in 6.2 mi SW 16.1 mph - N/A Rain Light Rain
9:02 AM 42.8 °F 34.8 °F 37.4 °F 81% 29.83 in 6.2 mi SW 17.3 mph - N/A   Mostly Cloudy
9:19 AM 42.8 °F 35.4 °F 39.2 °F 87% 29.83 in 3.1 mi SW 15.0 mph - N/A   Overcast
9:25 AM 42.8 °F 35.4 °F 39.2 °F 87% 29.83 in 6.2 mi SW 15.0 mph - N/A Rain Light Rain
9:35 AM 42.8 °F 36.6 °F 39.2 °F 87% 29.86 in 6.2 mi SW 11.5 mph - N/A   Scattered Clouds
9:55 AM 42.8 °F 35.1 °F 39.2 °F 87% 29.86 in 6.2 mi SW 16.1 mph - N/A   Mostly Cloudy
9:59 AM 42.8 °F 35.1 °F 39.2 °F 87% 29.86 in 6.2 mi SW 16.1 mph - N/A   Mostly Cloudy
10:06 AM 42.8 °F 35.1 °F 39.2 °F 87% 29.86 in 6.2 mi SW 16.1 mph 27.6 mph N/A   Mostly Cloudy
10:10 AM 42.8 °F 35.4 °F 39.2 °F 87% 29.86 in 6.2 mi SW 15.0 mph 27.6 mph N/A   Mostly Cloudy
10:19 AM 42.8 °F 35.4 °F 39.2 °F 87% 29.86 in 6.2 mi SW 15.0 mph - N/A   Scattered Clouds
10:25 AM 42.8 °F 35.4 °F 39.2 °F 87% 29.86 in 6.2 mi SW 15.0 mph - N/A   Scattered Clouds
10:34 AM 42.8 °F 35.8 °F 39.2 °F 87% 29.86 in 6.2 mi SW 13.8 mph - N/A   Mostly Cloudy
10:38 AM 42.8 °F 35.8 °F 39.2 °F 87% 29.86 in 6.2 mi SW 13.8 mph - N/A   Mostly Cloudy
10:55 AM 42.8 °F 35.8 °F 39.2 °F 87% 29.86 in 6.2 mi SW 13.8 mph 25.3 mph N/A   Unknown
11:25 AM 44.6 °F 38.1 °F 39.2 °F 81% 29.89 in 6.2 mi SW 13.8 mph 25.3 mph N/A   Partly Cloudy
11:44 AM 44.6 °F 37.4 °F 39.2 °F 81% 29.86 in 6.2 mi SW 16.1 mph 28.8 mph N/A   Overcast
11:47 AM 46.4 °F 39.8 °F 39.2 °F 76% 29.89 in 6.2 mi SW 16.1 mph - N/A   Mostly Cloudy
11:55 AM 46.4 °F 39.5 °F 39.2 °F 76% 29.89 in 6.2 mi SW 17.3 mph 29.9 mph N/A   Mostly Cloudy
12:12 PM 46.4 °F 40.1 °F 39.2 °F 76% 29.89 in 6.2 mi SW 15.0 mph - N/A   Scattered Clouds
12:25 PM 46.4 °F 39.8 °F 39.2 °F 76% 29.89 in 6.2 mi SW 16.1 mph - N/A   Scattered Clouds
12:51 PM 46.4 °F 39.2 °F 39.2 °F 76% 29.89 in 6.2 mi SW 18.4 mph - N/A   Mostly Cloudy
12:55 PM 46.4 °F 39.5 °F 39.2 °F 76% 29.89 in 6.2 mi SW 17.3 mph - N/A   Mostly Cloudy
12:59 PM 46.4 °F 39.5 °F 39.2 °F 76% 29.89 in 6.2 mi SW 17.3 mph - N/A   Overcast
1:25 PM 46.4 °F 39.2 °F 39.2 °F 76% 29.89 in 6.2 mi SW 18.4 mph - N/A   Mostly Cloudy
1:36 PM 46.4 °F 39.5 °F 41.0 °F 81% 29.89 in 6.2 mi SW 17.3 mph 28.8 mph N/A   Mostly Cloudy
1:43 PM 46.4 °F 39.8 °F 41.0 °F 81% 29.89 in 6.2 mi SW 16.1 mph - N/A   Mostly Cloudy
1:55 PM 48.2 °F - 39.2 °F 71% 29.89 in 6.2 mi SW 18.4 mph - N/A   Mostly Cloudy
2:02 PM 46.4 °F 39.0 °F 39.2 °F 76% 29.89 in 6.2 mi SW 19.6 mph 33.4 mph N/A   Mostly Cloudy
2:25 PM 46.4 °F 39.8 °F 39.2 °F 76% 29.89 in 6.2 mi SW 16.1 mph - N/A   Partly Cloudy
2:33 PM 46.4 °F 40.4 °F 39.2 °F 76% 29.89 in 6.2 mi SW 13.8 mph - N/A   Mostly Cloudy
2:37 PM 46.4 °F 40.4 °F 39.2 °F 76% 29.89 in 6.2 mi SW 13.8 mph 26.5 mph N/A   Mostly Cloudy
2:55 PM 46.4 °F 40.1 °F 39.2 °F 76% 29.89 in 6.2 mi SW 15.0 mph - N/A   Overcast
3:11 PM 46.4 °F 39.8 °F 39.2 °F 76% 29.92 in 6.2 mi SW 16.1 mph 27.6 mph N/A   Mostly Cloudy
3:25 PM 46.4 °F 39.8 °F 39.2 °F 76% 29.92 in 6.2 mi SW 16.1 mph - N/A   Overcast
3:40 PM 46.4 °F 40.1 °F 41.0 °F 81% 29.92 in 6.2 mi SW 15.0 mph - N/A   Mostly Cloudy
3:55 PM 46.4 °F 39.8 °F 41.0 °F 81% 29.92 in 6.2 mi SW 16.1 mph 27.6 mph N/A   Mostly Cloudy
4:05 PM 46.4 °F 40.1 °F 41.0 °F 81% 29.92 in 6.2 mi SW 15.0 mph 28.8 mph N/A   Mostly Cloudy
4:25 PM 46.4 °F 40.1 °F 41.0 °F 81% 29.92 in 6.2 mi SW 15.0 mph - N/A   Mostly Cloudy
4:31 PM 46.4 °F 40.4 °F 41.0 °F 81% 29.92 in 6.2 mi SW 13.8 mph - N/A   Overcast
4:35 PM 46.4 °F 40.4 °F 41.0 °F 81% 29.92 in 6.2 mi SW 13.8 mph - N/A   Overcast
4:45 PM 46.4 °F 40.1 °F 41.0 °F 81% 29.92 in 6.2 mi SW 15.0 mph - N/A   Mostly Cloudy
4:55 PM 46.4 °F 40.4 °F 41.0 °F 81% 29.92 in 6.2 mi SW 13.8 mph - N/A   Mostly Cloudy
4:59 PM 46.4 °F 40.4 °F 41.0 °F 81% 29.92 in 6.2 mi SW 13.8 mph - N/A   Overcast
5:15 PM 46.4 °F 40.1 °F 41.0 °F 81% 29.92 in 6.2 mi SW 15.0 mph - N/A   Mostly Cloudy
5:19 PM 46.4 °F 40.1 °F 41.0 °F 81% 29.92 in 6.2 mi SW 15.0 mph - N/A   Mostly Cloudy
5:25 PM 46.4 °F 39.8 °F 41.0 °F 81% 29.92 in 6.2 mi SW 16.1 mph - N/A   Overcast
5:44 PM 46.4 °F 40.1 °F 41.0 °F 81% 29.92 in 6.2 mi SW 15.0 mph - N/A   Overcast
5:51 PM 48.2 °F - 41.0 °F 76% 29.92 in 6.2 mi SW 16.1 mph - N/A   Mostly Cloudy
5:55 PM 46.4 °F 39.8 °F 41.0 °F 81% 29.92 in 6.2 mi SW 16.1 mph - N/A   Overcast
6:16 PM 46.4 °F 39.8 °F 41.0 °F 81% 29.95 in 6.2 mi SW 16.1 mph - N/A   Scattered Clouds
6:25 PM 46.4 °F 40.7 °F 41.0 °F 81% 29.95 in 6.2 mi SW 12.7 mph 24.2 mph N/A   Mostly Cloudy
6:29 PM 46.4 °F 40.4 °F 41.0 °F 81% 29.95 in 6.2 mi SW 13.8 mph - N/A   Scattered Clouds
6:47 PM 46.4 °F 39.8 °F 41.0 °F 81% 29.95 in 6.2 mi SW 16.1 mph 28.8 mph N/A   Mostly Cloudy
6:51 PM 46.4 °F 39.8 °F 41.0 °F 81% 29.95 in 6.2 mi SW 16.1 mph - N/A   Mostly Cloudy
6:55 PM 46.4 °F 39.5 °F 42.8 °F 87% 29.95 in 6.2 mi SW 17.3 mph 29.9 mph N/A   Mostly Cloudy
6:59 PM 46.4 °F 39.8 °F 42.8 °F 87% 29.95 in 6.2 mi SW 16.1 mph 29.9 mph N/A   Mostly Cloudy
7:25 PM 46.4 °F 40.1 °F 42.8 °F 87% 29.95 in 6.2 mi SW 15.0 mph - N/A   Mostly Cloudy
7:55 PM 48.2 °F - 42.8 °F 82% 29.95 in 6.2 mi SW 15.0 mph 27.6 mph N/A   Overcast
8:25 PM 48.2 °F - 42.8 °F 82% 29.95 in 6.2 mi SW 15.0 mph - N/A   Mostly Cloudy
8:40 PM 48.2 °F - 42.8 °F 82% 29.95 in 6.2 mi SW 16.1 mph - N/A   Overcast
8:55 PM 48.2 °F - 42.8 °F 82% 29.95 in 6.2 mi SW 13.8 mph - N/A   Overcast
9:10 PM 48.2 °F - 42.8 °F 82% 29.95 in 6.2 mi SW 13.8 mph - N/A   Overcast
9:25 PM 48.2 °F - 42.8 °F 82% 29.95 in 6.2 mi SW 13.8 mph - N/A   Overcast
9:55 PM 48.2 °F - 44.6 °F 87% 29.98 in 6.2 mi SW 15.0 mph - N/A   Overcast
10:25 PM 48.2 °F - 42.8 °F 82% 29.95 in 6.2 mi SW 15.0 mph - N/A   Scattered Clouds
10:42 PM 48.2 °F - 42.8 °F 82% 29.98 in 6.2 mi SW 15.0 mph - N/A   Mostly Cloudy
10:55 PM 48.2 °F - 42.8 °F 82% 29.98 in 6.2 mi SW 13.8 mph - N/A   Scattered Clouds
11:00 PM 48.2 °F - 42.8 °F 82% 29.98 in 6.2 mi SW 15.0 mph - N/A   Partly Cloudy
11:16 PM 48.2 °F - 42.8 °F 82% 29.98 in 6.2 mi SW 15.0 mph - N/A   Scattered Clouds
11:25 PM 48.2 °F - 42.8 °F 82% 29.98 in 6.2 mi SW 15.0 mph - N/A   Mostly Cloudy
11:55 PM 48.2 °F - 42.8 °F 82% 29.98 in 6.2 mi SW 15.0 mph - N/A   Overcast